Location: Ferchesar
(52.6477°N, 12.4298°E)
Time: 15:25:18
(UTC+01:00)

Explorer 7 - Pass Details

Date: 07 December 2021
Orbit: 483 x 674 km, 50.3° (Epoch: 22 January)

Event Time Altitude Azimuth Distance (km) Brightness Sun altitude
Rises 09:47:31 0° 279° (W) 2,700 10.0 9.2°
Reaches altitude 10° 09:50:00 10° 268° (W) 1,773 9.2 9.4°
Maximum altitude 09:53:28 28° 209° (SSW) 971 8.6 9.7°
Drops below altitude 10° 09:56:47 10° 148° (SSE) 1,694 13.1 9.9°
Sets 09:59:06 0° 137° (SE) 2,556 12.0 10.1°
